Temperature
7 6 6 6 7 8 8 8 8 9 10 10 10 10 11 11 12 12 13 13 14 15 16 16 16 16 16 16 16 16 16 15 15 15 15 15 14 14 14 14 14 14 14 14
5 6 7 8 8 8 8 8 8 9 10 10 9 10 10 11 12 12 13 13 14 15 15 16 16 16 16 16 16 16 16 16 15 15 15 15 15 15 14 14 14 14 14 14
6 6 8 8 8 8 8 8 9 9 9 10 10 9 10 11 12 13 13 14 14 15 15 16 16 16 16 16 16 16 16 16 15 15 15 15 14 14 14 14 14 14 14 14
6 7 8 8 8 8 8 9 9 9 9 8 9 8 9 10 11 11 13 14 14 15 16 16 16 16 16 16 16 16 16 16 15 15 15 15 15 15 15 14 14 14 14 14
6 7 7 7 8 8 8 9 9 9 9 8 8 8 9 10 10 11 12 13 14 15 16 16 16 16 16 16 16 16 16 16 15 15 15 15 15 15 15 14 14 14 14 14
7 7 7 8 8 9 9 9 8 7 7 7 8 8 8 9 10 11 12 13 14 15 16 16 16 16 16 16 16 16 15 15 15 15 15 15 15 15 14 14 14 14 14 14
6 7 8 8 8 8 8 7 6 6 6 7 8 8 9 10 11 11 12 13 14 15 15 15 16 16 16 16 16 15 15 15 15 15 15 15 14 14 14 14 14 14 14 14
5 5 7 8 8 7 7 7 6 6 6 7 8 8 9 10 11 12 13 13 14 14 15 15 15 15 15 15 15 15 15 15 15 15 14 14 14 14 14 14 13 13 13 13
6 6 7 8 8 8 7 7 7 6 7 7 7 8 10 11 10 11 12 13 13 14 14 15 15 15 15 15 15 15 14 14 14 14 14 14 14 13 13 13 13 13 12 12
7 6 7 7 8 8 8 7 6 6 7 7 8 8 9 10 10 10 10 11 13 13 14 14 14 14 14 14 14 14 14 14 14 14 13 13 13 13 13 12 12 12 12 12
7 6 6 7 7 7 7 7 7 6 6 7 7 8 9 9 9 9 9 11 12 13 13 13 13 13 14 14 13 13 13 13 13 13 12 12 12 12 12 12 12 11 11 11
7 6 5 6 7 7 7 7 7 6 6 6 6 7 9 8 9 9 10 11 12 12 13 13 13 13 13 13 13 12 12 12 12 12 11 11 11 11 11 11 11 11 10 10
7 5 5 5 6 6 7 7 7 6 6 5 6 8 9 8 8 9 10 11 11 12 12 12 12 12 12 12 12 11 11 11 11 10 10 10 10 10 10 10 10 10 9 9
7 5 5 5 6 6 6 6 7 6 5 6 6 7 8 9 8 9 10 10 10 11 11 11 11 11 11 11 11 10 10 10 10 9 9 9 9 9 9 9 9 9 9 8
6 5 5 5 6 6 6 6 6 6 6 6 7 7 8 8 8 8 9 9 9 10 10 10 10 10 10 10 10 9 9 9 9 9 9 9 9 9 8 8 8 8 8 7
5 5 5 5 6 6 6 6 6 6 6 6 6 7 7 8 8 8 8 9 9 9 9 9 9 10 10 9 9 9 8 8 8 8 8 8 8 8 8 8 8 7 7 7
4 4 5 4 5 5 5 6 6 6 6 6 6 7 7 7 7 7 8 8 8 8 8 9 9 9 9 9 9 9 8 8 8 8 8 8 8 8 7 7 7 7 6 6
4 4 4 4 5 4 5 6 6 6 6 6 6 6 6 6 7 7 7 7 7 8 8 8 8 8 8 8 8 8 8 8 8 7 7 7 7 7 7 6 6 6 5 5
4 4 4 3 4 4 6 6 6 6 5 5 5 5 6 6 6 6 6 6 7 7 7 7 8 8 8 8 8 8 8 7 7 7 7 7 7 7 6 6 5 5 5 4
3 4 3 3 4 4 5 6 6 6 5 5 5 5 5 5 5 5 6 6 6 6 7 7 7 7 7 7 7 7 7 7 7 7 7 7 6 6 5 5 5 4 4 3
3 3 3 3 4 4 5 5 6 5 5 4 4 4 4 4 4 5 5 5 6 6 6 6 6 7 7 7 7 7 7 7 7 7 6 6 6 5 5 4 4 3 3 2
3 3 3 3 3 4 4 5 4 4 4 4 4 4 4 4 4 4 5 5 5 5 5 6 6 6 6 6 6 6 6 6 6 6 6 5 5 4 4 3 3 2 2 2
2 3 3 3 3 4 4 4 3 4 3 3 3 3 3 3 4 4 4 4 4 5 5 5 5 5 5 5 6 6 6 6 5 5 5 5 4 4 3 3 2 2 1 1
2 3 2 3 3 3 3 3 3 3 3 3 3 3 3 3 3 3 3 3 4 4 4 4 4 4 5 5 5 5 5 5 5 4 4 4 3 3 3 2 2 1 1 1
1 2 2 2 2 3 3 3 3 2 2 2 2 2 2 2 2 2 2 2 3 3 3 3 4 4 4 4 4 4 4 4 4 3 3 3 3 2 2 2 1 1 1 1
0 1 1 2 2 2 2 2 2 2 2 1 1 1 1 1 1 1 2 2 2 2 2 2 3 3 3 3 3 3 3 3 3 3 2 2 2 2 1 1 1 1 0 0
Wind_Speed
1 3 2 3 3 3 4 4 3 3 3 4 6 6 7 6 5 6 7 8 9 10 8 7 7 7 7 8 10 11 11 10 9 6 6 6 5 4 4 4 7 8 8 8
3 0 3 2 2 2 3 4 3 1 4 3 4 7 7 8 9 9 10 11 11 9 7 7 8 7 7 9 10 10 11 11 10 8 6 4 5 4 3 3 5 6 7 7
2 2 1 3 2 2 2 4 4 4 2 1 2 4 7 8 8 10 11 12 12 12 11 9 8 9 8 8 9 10 10 10 10 8 5 4 4 3 3 3 3 4 7 7
1 2 1 2 2 3 2 3 3 5 5 2 3 3 6 8 10 11 13 12 12 12 11 10 10 9 10 10 8 8 9 9 9 9 9 8 6 5 5 4 4 4 6 6
1 1 1 1 2 2 2 1 3 4 3 1 2 3 6 6 9 13 14 14 13 11 11 11 11 11 9 8 8 8 8 8 8 8 10 9 6 5 4 5 6 4 4 6
1 1 1 2 1 1 1 4 5 4 3 2 5 5 6 6 11 10 11 12 11 10 9 9 8 7 6 6 6 7 8 7 7 8 9 10 10 9 8 7 7 5 3 3
3 3 2 0 2 2 4 5 2 2 0 5 4 5 9 9 9 11 11 10 10 9 8 8 8 8 7 8 7 7 9 7 6 7 7 8 9 9 10 8 8 7 4 3
0 3 2 0 2 3 2 5 5 4 4 3 2 6 8 7 6 5 5 5 5 5 6 7 8 8 8 8 7 7 8 7 6 7 6 6 7 6 5 6 6 6 4 4
2 2 1 1 1 4 4 3 3 3 1 1 4 5 7 3 3 1 1 2 2 3 4 5 6 7 7 8 8 8 8 6 6 6 7 7 7 7 7 7 6 5 4 4
3 1 1 1 1 0 3 4 4 3 3 2 3 4 4 4 3 2 0 2 2 1 2 3 4 5 6 6 6 6 7 7 6 7 6 6 7 7 8 7 7 7 5 5
1 2 1 1 2 3 1 1 2 2 2 3 2 5 4 5 4 1 1 1 1 1 1 2 3 4 5 5 6 6 7 7 7 7 7 8 7 7 7 7 7 7 6 6
1 3 1 3 3 2 3 3 4 3 3 2 2 6 5 2 1 1 1 1 1 1 0 1 2 3 4 5 5 6 6 7 7 7 7 7 7 7 7 7 7 7 7 6
3 3 1 4 3 1 2 3 4 3 2 3 3 5 4 4 4 3 2 1 2 1 1 0 1 3 4 5 5 6 6 7 6 7 8 8 7 7 7 7 7 7 7 6
3 2 4 5 4 2 3 3 4 4 3 3 5 6 6 5 5 5 5 3 2 2 1 1 2 3 3 4 5 6 6 7 7 8 8 8 7 7 7 7 7 6 6 6
3 1 2 4 4 4 5 5 5 6 6 6 6 6 7 5 5 5 5 4 3 3 3 2 3 3 3 4 4 5 6 7 8 8 8 8 7 7 7 7 7 6 6 6
3 1 1 3 3 3 4 6 6 7 6 7 7 7 5 4 2 3 4 4 4 4 4 3 3 3 4 5 5 6 7 7 8 8 8 7 8 8 8 7 7 7 6 5
1 2 1 3 4 3 4 5 6 4 4 5 7 6 3 3 3 3 3 3 3 4 4 4 4 4 5 6 6 7 8 7 8 8 8 8 8 8 8 8 7 7 6 5
4 3 1 1 2 3 5 3 2 3 1 1 2 3 3 3 2 1 2 3 4 5 5 5 4 4 4 4 5 5 6 7 8 8 8 8 9 9 8 8 8 7 5 5
5 4 2 1 2 5 5 2 1 2 1 4 2 3 4 4 1 3 4 4 4 5 5 5 5 4 4 3 3 5 6 7 8 8 9 9 10 10 9 9 8 6 5 5
3 3 3 2 2 4 4 4 4 1 1 3 3 4 5 4 2 4 6 7 6 5 4 4 4 3 2 3 2 5 6 7 9 9 9 9 9 10 10 9 7 5 5 5
3 2 3 4 4 5 4 5 2 2 3 3 3 4 4 2 3 6 7 7 6 5 5 4 4 3 3 2 2 4 5 8 8 6 7 8 9 9 8 8 6 6 5 6
6 5 5 4 4 6 3 2 2 2 1 3 4 4 4 5 6 6 6 7 7 6 5 5 4 4 4 2 2 3 5 4 4 5 7 7 8 8 7 8 7 6 7 7
5 6 4 6 5 1 1 2 1 1 1 3 4 5 5 6 6 7 6 6 6 5 5 4 4 5 4 2 1 3 3 3 5 5 6 6 7 7 7 8 8 7 7 6
2 1 3 2 3 2 2 2 2 2 2 3 4 5 5 6 7 7 7 7 6 6 5 4 4 4 4 3 2 2 2 3 4 5 5 6 6 6 6 6 7 7 8 7
5 3 3 3 2 2 2 0 1 2 3 4 5 4 5 6 7 7 7 7 6 6 5 4 4 4 5 4 3 2 1 3 4 4 5 5 6 6 6 6 7 8 8 9
4 5 6 5 5 4 3 2 1 2 4 5 5 6 6 5 7 8 7 7 6 5 5 4 4 4 4 3 3 2 1 3 4 4 5 5 5 5 5 6 5 9 9 12
Wind_Direction
33 94 157 186 179 154 147 149 168 206 185 157 200 238 244 247 237 246 251 245 239 237 239 230 222 206 187 182 183 182 180 179 173 171 169 167 174 170 163 160 168 169 167 167
51 4 230 200 177 133 150 166 180 179 168 161 208 246 249 236 228 224 232 238 240 239 242 230 219 209 196 188 186 186 185 180 180 182 175 167 162 162 160 150 154 163 160 157
122 257 209 142 145 159 179 179 180 162 139 180 171 264 250 248 239 235 228 228 229 227 223 222 212 207 200 196 192 188 184 181 179 171 153 132 120 114 134 151 158 154 149 145
7 309 109 132 187 176 194 203 172 151 139 196 181 243 257 233 241 238 234 229 227 225 218 214 209 204 201 200 193 187 181 179 176 168 166 166 172 178 182 170 160 135 128 127
346 10 63 144 227 172 205 163 125 134 131 118 199 208 268 231 232 236 232 228 226 222 214 215 212 207 204 198 190 185 178 178 175 173 172 171 173 177 159 144 143 134 114 114
269 290 243 234 280 188 145 79 67 58 82 227 212 191 263 226 220 230 227 227 229 225 219 218 218 205 193 184 179 175 172 176 175 173 173 176 175 169 159 160 157 145 126 105
359 330 295 194 80 40 92 101 75 50 115 241 217 198 249 246 233 224 222 221 222 218 210 205 199 193 186 181 179 173 167 169 170 169 171 175 174 170 168 166 161 155 148 143
71 305 274 206 162 151 144 137 157 177 198 260 207 221 254 264 258 233 216 207 204 209 207 199 194 190 185 183 178 173 171 165 163 161 159 156 151 149 147 149 151 153 151 147
167 270 306 175 160 140 142 168 169 133 176 231 251 273 305 330 350 334 185 164 182 198 196 197 190 183 178 177 177 173 168 159 155 150 141 137 138 136 135 131 126 126 131 135
162 182 312 308 84 60 143 145 113 139 170 222 265 268 260 286 289 325 241 179 183 153 169 176 184 187 182 177 169 159 158 157 151 144 141 138 133 132 133 132 131 131 134 129
130 137 331 29 189 200 148 146 144 154 172 177 230 267 251 248 248 205 223 201 162 158 180 190 187 181 169 158 158 158 156 149 148 144 138 135 132 129 127 130 134 137 132 133
138 123 228 266 263 207 191 199 165 171 224 192 197 274 312 320 297 119 88 31 39 65 150 180 171 159 161 163 163 163 161 156 154 145 138 133 130 130 132 135 137 136 134 134
135 121 74 344 342 336 234 217 187 163 156 185 196 265 327 11 13 17 37 17 1 348 2 99 163 177 181 175 170 165 162 157 149 143 140 139 141 143 144 142 137 134 132 130
113 122 171 198 228 217 244 247 200 169 190 219 228 255 300 330 342 343 347 339 335 322 300 252 220 215 202 189 179 173 170 162 154 149 149 154 159 157 151 145 142 140 138 136
94 144 232 251 255 233 237 243 220 208 206 210 237 246 268 291 299 309 318 320 328 323 301 263 236 228 215 199 190 182 177 168 160 158 164 169 162 153 148 147 146 142 142 147
77 143 318 306 285 253 262 257 236 228 228 232 251 268 274 293 300 313 312 312 310 301 289 281 264 233 219 210 200 190 187 179 167 170 174 165 158 155 155 154 149 147 148 150
101 113 80 286 316 354 289 257 227 218 219 212 236 256 300 304 307 303 307 328 316 310 302 290 275 252 236 222 205 198 193 176 173 176 173 168 164 163 164 160 155 160 163 162
143 127 136 287 5 257 254 278 209 179 320 300 264 307 316 290 279 356 16 352 328 317 307 297 284 272 256 235 213 197 179 174 178 180 179 174 170 169 165 163 169 169 164 168
160 148 150 169 257 280 297 324 352 157 21 357 339 336 336 326 360 346 357 350 319 307 300 292 283 272 261 244 212 182 180 179 181 187 187 183 176 173 172 176 177 171 166 172
125 132 147 171 219 243 266 305 311 124 238 352 9 356 348 12 2 304 328 331 321 312 308 308 308 303 293 268 199 177 187 187 199 200 193 182 177 177 181 181 175 169 171 180
133 151 184 201 235 261 274 299 357 157 260 335 347 344 348 335 265 289 312 320 320 316 316 319 320 314 297 287 193 190 196 209 211 191 177 177 179 180 178 173 169 168 170 172
174 176 190 182 211 251 300 54 115 232 317 342 335 330 320 303 298 305 313 319 325 325 325 327 327 323 318 311 194 208 221 219 181 168 172 177 177 176 173 171 172 172 174 182
189 189 187 195 211 245 79 111 58 30 355 331 321 319 318 311 310 314 315 318 319 318 317 322 321 321 326 327 236 229 236 183 167 167 175 176 173 174 171 174 177 178 184 193
245 170 171 214 228 189 140 111 50 18 333 314 313 315 320 313 313 314 314 314 315 315 315 317 320 317 316 320 315 268 234 177 167 176 177 173 173 175 174 179 183 189 194 200
219 182 183 221 220 171 208 173 347 344 338 328 323 318 315 314 315 316 314 311 310 312 314 317 311 306 306 317 315 304 224 171 175 181 181 179 182 181 186 192 198 201 207 206
203 183 182 214 203 189 226 233 329 334 323 323 323 322 321 312 308 312 310 311 312 312 315 316 313 309 308 312 309 299 244 186 184 192 192 191 191 191 193 198 213 222 222 227
Height
1488 1491 1492 1490 1490 1491 1492 1494 1497 1496 1493 1495 1498 1498 1496 1495 1497 1497 1498 1499 1500 1501 1503 1505 1507 1508 1511 1513 1516 1519 1522 1525 1528 1531 1534 1536 1539 1541 1543 1546 1547 1549 1550 1552
1492 1492 1490 1488 1488 1489 1491 1495 1496 1494 1492 1495 1498 1498 1495 1494 1494 1495 1496 1497 1497 1499 1500 1502 1504 1506 1507 1510 1512 1516 1518 1521 1524 1528 1531 1534 1536 1538 1540 1543 1544 1546 1548 1549
1492 1491 1488 1488 1489 1490 1491 1494 1494 1494 1494 1495 1498 1499 1495 1491 1491 1491 1492 1494 1495 1495 1497 1499 1501 1503 1505 1507 1510 1512 1515 1518 1521 1524 1527 1530 1533 1534 1537 1539 1541 1543 1544 1546
1491 1489 1488 1489 1490 1489 1492 1490 1490 1492 1497 1501 1499 1504 1495 1490 1489 1487 1486 1488 1489 1491 1493 1495 1497 1500 1502 1504 1507 1510 1512 1515 1517 1520 1523 1526 1528 1530 1532 1535 1538 1540 1541 1542
1492 1490 1489 1490 1489 1488 1490 1488 1490 1492 1496 1502 1501 1504 1496 1489 1488 1483 1480 1481 1483 1486 1488 1490 1493 1496 1498 1501 1504 1506 1509 1512 1514 1517 1520 1522 1525 1527 1530 1532 1534 1536 1537 1538
1491 1490 1490 1489 1488 1488 1488 1490 1493 1497 1500 1506 1500 1503 1497 1488 1480 1476 1475 1476 1478 1481 1483 1486 1489 1492 1495 1498 1500 1503 1506 1508 1511 1514 1516 1519 1521 1524 1526 1528 1530 1532 1533 1534
1493 1491 1489 1489 1489 1490 1490 1498 1506 1508 1510 1507 1497 1497 1491 1476 1472 1470 1470 1471 1473 1476 1479 1482 1485 1488 1490 1493 1496 1499 1501 1504 1507 1510 1513 1515 1518 1520 1522 1524 1526 1527 1529 1530
1498 1498 1491 1489 1490 1491 1493 1497 1506 1509 1509 1505 1495 1495 1483 1470 1467 1466 1467 1469 1471 1473 1475 1478 1481 1484 1487 1490 1492 1495 1498 1501 1504 1506 1509 1511 1514 1516 1518 1520 1522 1524 1525 1526
1497 1496 1490 1489 1489 1490 1493 1496 1496 1502 1502 1502 1497 1488 1477 1468 1468 1467 1467 1468 1469 1471 1473 1475 1478 1481 1484 1487 1489 1492 1494 1497 1499 1502 1504 1507 1509 1512 1514 1516 1519 1520 1521 1522
1491 1495 1491 1490 1489 1490 1491 1493 1499 1503 1502 1501 1495 1490 1484 1474 1471 1469 1468 1468 1469 1470 1472 1473 1476 1478 1481 1484 1487 1489 1491 1493 1496 1498 1501 1503 1505 1508 1511 1513 1514 1516 1517 1518
1490 1495 1495 1493 1492 1492 1493 1494 1496 1500 1501 1502 1499 1493 1477 1474 1472 1471 1469 1469 1469 1470 1471 1473 1475 1477 1479 1481 1483 1486 1488 1490 1492 1494 1497 1500 1502 1504 1507 1509 1511 1512 1513 1514
1490 1495 1498 1495 1491 1490 1491 1492 1495 1500 1501 1501 1503 1494 1474 1473 1472 1470 1470 1470 1470 1471 1472 1472 1474 1475 1477 1478 1480 1482 1484 1486 1489 1491 1493 1496 1498 1501 1503 1505 1507 1508 1509 1510
1489 1495 1502 1500 1498 1494 1492 1491 1492 1495 1498 1500 1500 1491 1475 1474 1473 1472 1471 1471 1471 1471 1471 1472 1473 1474 1475 1476 1478 1479 1481 1483 1485 1488 1490 1492 1495 1497 1499 1501 1502 1504 1505 1505
1488 1494 1500 1501 1495 1494 1493 1491 1490 1494 1498 1497 1494 1486 1479 1477 1475 1474 1473 1472 1471 1471 1471 1471 1472 1472 1473 1474 1475 1476 1478 1480 1482 1484 1487 1489 1491 1494 1496 1497 1498 1500 1501 1501
1489 1494 1494 1493 1490 1491 1490 1489 1489 1491 1492 1493 1487 1484 1480 1478 1477 1475 1474 1473 1472 1471 1471 1470 1470 1471 1471 1472 1472 1474 1475 1477 1479 1481 1483 1485 1488 1490 1492 1493 1495 1496 1497 1497
1491 1494 1494 1493 1489 1489 1489 1487 1486 1487 1486 1486 1485 1483 1478 1477 1476 1475 1474 1473 1471 1471 1470 1469 1469 1469 1469 1469 1470 1471 1472 1474 1476 1478 1480 1482 1484 1486 1488 1490 1491 1492 1493 1493
1493 1495 1496 1498 1492 1489 1492 1484 1483 1483 1481 1482 1482 1480 1477 1477 1475 1474 1473 1472 1470 1469 1469 1468 1467 1467 1467 1467 1467 1468 1469 1471 1473 1475 1477 1479 1481 1483 1485 1486 1488 1488 1489 1489
1493 1495 1498 1498 1496 1498 1488 1480 1479 1481 1481 1480 1479 1478 1477 1475 1474 1473 1472 1471 1470 1469 1467 1466 1465 1464 1464 1464 1465 1466 1467 1468 1470 1471 1473 1475 1477 1479 1481 1482 1484 1485 1485 1486
1490 1494 1498 1500 1499 1494 1484 1480 1480 1481 1482 1481 1479 1478 1476 1474 1473 1472 1472 1470 1469 1467 1466 1464 1463 1462 1461 1461 1462 1462 1463 1465 1466 1468 1470 1472 1473 1475 1477 1478 1480 1481 1481 1481
1491 1493 1498 1498 1496 1494 1486 1480 1478 1480 1482 1481 1479 1478 1476 1474 1475 1474 1471 1469 1467 1466 1464 1462 1461 1459 1459 1458 1459 1459 1460 1461 1462 1464 1466 1468 1469 1471 1473 1474 1476 1476 1477 1477
1493 1495 1497 1497 1495 1489 1484 1480 1478 1485 1484 1482 1479 1478 1476 1475 1475 1473 1470 1468 1466 1464 1462 1460 1459 1457 1456 1456 1456 1456 1456 1457 1459 1460 1462 1463 1465 1467 1469 1470 1471 1472 1473 1473
1489 1493 1493 1494 1494 1492 1481 1480 1483 1483 1481 1480 1479 1478 1476 1474 1472 1470 1468 1466 1463 1461 1459 1458 1456 1455 1454 1453 1453 1453 1453 1454 1455 1456 1458 1459 1461 1462 1464 1465 1466 1467 1468 1469
1486 1486 1487 1488 1487 1483 1481 1481 1482 1481 1480 1479 1478 1476 1475 1472 1470 1468 1465 1463 1461 1459 1457 1455 1454 1452 1451 1451 1451 1450 1450 1451 1452 1453 1453 1455 1456 1457 1459 1460 1461 1462 1463 1464
1482 1481 1483 1483 1481 1481 1481 1480 1480 1480 1479 1478 1477 1475 1473 1470 1468 1465 1463 1461 1458 1456 1454 1453 1451 1450 1449 1448 1448 1447 1447 1447 1448 1449 1450 1451 1452 1453 1454 1455 1456 1457 1458 1459
1480 1480 1481 1480 1480 1480 1479 1479 1479 1478 1477 1475 1474 1472 1470 1468 1465 1463 1460 1458 1455 1453 1451 1450 1448 1447 1446 1445 1444 1444 1444 1444 1444 1445 1446 1447 1447 1449 1450 1451 1452 1453 1454 1455
1475 1476 1478 1478 1476 1477 1477 1477 1477 1476 1474 1473 1471 1468 1467 1465 1462 1459 1457 1455 1452 1450 1449 1447 1445 1444 1443 1442 1441 1441 1441 1441 1441 1441 1442 1442 1443 1444 1445 1446 1447 1448 1449 1450